User: anonymous
Location: Leeds
(37.2390°N, 113.3580°W)
Time: 10:47:10
(UTC-06:00)
Language:

SL-08 RB Rocket - Orbit

View from above orbital plane
View from above orbital plane
View from above satellite
View from above satellite

Ground track
Ground track

The orbit data is extracted from the following two-line orbital elements,

1 26387U 00033D   14210.16304053  .00000438  00000-0  85882-4 0  5640
2 26387 098.1027 277.4046 0028195 081.9147 330.8240 14.67321016753242
Epoch (UTC): 29 July 2014 03:54:46
Eccentricity: 0.0028195
inclination: 98.1027°
perigee height: 650 km
apogee height: 689 km
right ascension of ascending node: 277.4046°
argument of perigee: 81.9147°
revolutions per day: 14.67321016
mean anomaly at epoch: 330.8240°
orbit number at epoch: 75324

The dashed part of the orbit path shows where the satellite is in the earth's shadow,  

DLR